IRNSS-1A

Last updated on Fri Jun 19 2026 17:09:31 GMT+0000 (Coordinated Universal Time)

1 39199U 13034A 26169.89544831 .00000051 00000+0 00000+0 0 9992 2 39199 35.7241 63.8469 0017589 183.2529 37.3106 1.00275723 47380
UTC large
Height (km)
Speed (km/s)
/
Latitude / Longitude
Inclination (degrees)
Orbital Period (minutes)
Azimuth
Elevation
Range (km)
Doppler Factor

Next 0 passes for location: London (51.5072 / 0.1276)

No passes found over London.
IRNSS-1A